Needles, CA

6:12 AM PDT on July 24, 2017 (GMT -0700)
Needles

Weather History for KEED - December, 2013

Change the Weather History Date:

Monday, December 9, 2013

  Actual Average Record
Temperature  
Mean Temperature 41 °F 53 °F  
Max Temperature 46 °F 64 °F 80 °F (1934)
Min Temperature 36 °F 43 °F 26 °F (1978)
Degree Days  
Heating Degree Days 24    
Cooling Degree Days 0    
Moisture  
Dew Point 6 °F    
Average Humidity 23    
Maximum Humidity 31    
Minimum Humidity 16    
Precipitation  
Precipitation 0.00 in 0.01 in 0.85 in (1965)
Month to date precipitation 0.11  
Year to date precipitation 4.22  
Sea Level Pressure  
Sea Level Pressure 30.40 in    
Wind  
Wind Speed 17 mph (North)    
Max Wind Speed 31 mph    
Max Gust Speed 39 mph    
Visibility 10 miles    
Events      
T = Trace of Precipitation, MM = Missing Value Source: NWS Daily Summary

Daily Weather History Graph

Daily Weather History Graph

Search for Another Location

Airport or City:

Trip Planner

Search our weather history database for the weather conditions in past years. The results will help you decide how hot, cold, wet, or windy it might be!

Date:

Astronomy

Dec. 09, 2013 Rise Set
Actual Time 6:34 AM PST 4:27 PM PST
Civil Twilight 6:06 AM PST 4:55 PM PST
Nautical Twilight 5:35 AM PST 5:26 PM PST
Astronomical Twilight 5:04 AM PST 5:57 PM PST
Moon 11:44 AM PST (12/9) No Moon Set
Length of Visible Light 10h 48m
Length of Day
9h 53m
First Quarter, 52% of the Moon is Illuminated
Dec 9
First Quarter
Dec 17
Full
Dec 25
Last Quarter
Jan 1
New
Jan 7
First Quarter

Hourly Weather History & Observations

Time (PST) Temp. Windchill Dew Point Humidity Pressure Visibility Wind Dir Wind Speed Gust Speed Precip Events Conditions
12:56 AM 37.0 °F 29.3 °F 9.0 °F 31% 30.24 in 10.0 mi NNW 11.5 mph - N/A   Clear
1:56 AM 37.9 °F 30.5 °F 7.0 °F 28% 30.25 in 10.0 mi North 11.5 mph - N/A   Clear
2:56 AM 37.0 °F 30.4 °F 7.0 °F 29% 30.27 in 10.0 mi North 9.2 mph - N/A   Clear
3:56 AM 37.0 °F 30.4 °F 6.1 °F 28% 30.28 in 10.0 mi North 9.2 mph - N/A   Clear
4:56 AM 37.0 °F 28.1 °F 6.1 °F 28% 30.30 in 10.0 mi North 15.0 mph - N/A   Clear
5:56 AM 36.0 °F 27.5 °F 7.0 °F 30% 30.35 in 10.0 mi North 12.7 mph - N/A   Clear
6:56 AM 37.9 °F 27.9 °F 5.0 °F 25% 30.38 in 10.0 mi North 19.6 mph - N/A   Clear
7:56 AM 41.0 °F 30.9 °F 3.9 °F 21% 30.41 in 10.0 mi North 24.2 mph 31.1 mph N/A   Clear
8:56 AM 42.1 °F 33.3 °F 6.1 °F 23% 30.45 in 10.0 mi North 19.6 mph 33.4 mph N/A   Clear
9:56 AM 44.1 °F 34.0 °F 6.1 °F 21% 30.47 in 10.0 mi NNE 29.9 mph 36.8 mph N/A   Clear
10:56 AM 45.0 °F 35.4 °F 6.1 °F 20% 30.47 in 10.0 mi NNE 28.8 mph 39.1 mph N/A   Clear
11:56 AM 46.0 °F 36.5 °F 5.0 °F 19% 30.43 in 10.0 mi NNE 31.1 mph 38.0 mph N/A   Clear
12:56 PM 46.9 °F - 5.0 °F 18% 30.42 in 10.0 mi NNE 26.5 mph 35.7 mph N/A   Clear
1:56 PM 46.9 °F - 5.0 °F 18% 30.41 in 10.0 mi North 23.0 mph - N/A   Clear
2:56 PM 46.9 °F - 3.0 °F 16% 30.42 in 10.0 mi NNE 21.9 mph 29.9 mph N/A   Clear
3:56 PM 46.0 °F 38.0 °F 3.9 °F 18% 30.43 in 10.0 mi North 21.9 mph 28.8 mph N/A   Clear
4:56 PM 43.0 °F 34.2 °F 3.9 °F 20% 30.43 in 10.0 mi North 20.7 mph - N/A   Clear
5:56 PM 42.1 °F 33.9 °F 6.1 °F 23% 30.45 in 10.0 mi North 17.3 mph - N/A   Clear
6:56 PM 41.0 °F 31.6 °F 9.0 °F 27% 30.45 in 10.0 mi North 20.7 mph 29.9 mph N/A   Clear
7:56 PM 41.0 °F 33.5 °F 8.1 °F 26% 30.46 in 10.0 mi North 13.8 mph - N/A   Clear
8:56 PM 41.0 °F 32.5 °F 6.1 °F 24% 30.46 in 10.0 mi North 17.3 mph - N/A   Clear
9:56 PM 41.0 °F 31.4 °F 3.9 °F 21% 30.45 in 10.0 mi North 21.9 mph - N/A   Clear
10:56 PM 39.9 °F 32.1 °F 5.0 °F 23% 30.45 in 10.0 mi North 13.8 mph - N/A   Clear
11:56 PM 39.0 °F 31.4 °F 6.1 °F 26% 30.45 in 10.0 mi North 12.7 mph - N/A   Clear